{"data":{"norad_id":62924,"epoch":"2026-09-20T21:03:08.298432Z","epoch_age_seconds":135679,"freshness":"FRESH","line1":"1 62924U 25027T   26263.87717938  .00015125  00000+0  55783-3 0  9992","line2":"2 62924  43.0037 106.5524 0000564 310.4822  49.5981 15.27592420 91395","mean_motion":15.2759242,"eccentricity":5.64e-5,"inclination_deg":43.0037,"raan_deg":106.5524,"arg_perigee_deg":310.4822,"mean_anomaly_deg":49.5981,"bstar":0.00055783,"rev_number":9139,"period_min":94.265982283416,"perigee_km":482.62493754524,"apogee_km":483.39887514188,"semimajor_km":6861.1489063436,"source":"CELESTRAK","updated_at":"2026-09-22T09:00:49.710116Z"}}